Time+03,TemperatureF,Dew PointF,Humidity,Sea Level PressureIn,VisibilityMPH,Wind Direction,Wind SpeedMPH,Gust SpeedMPH,PrecipitationIn,Events,Conditions,WindDirDegrees,DateUTC
12:00 AM,91.4,59.0,34,29.44,-9999.0,WSW,4.6,-,N/A,,Clear,250,2013-06-24 21:00:00
12:30 AM,93.2,57.2,30,29.44,-9999.0,Variable,3.5,-,N/A,,Clear,0,2013-06-24 21:30:00
1:00 AM,91.4,57.2,31,29.44,-9999.0,SW,4.6,-,N/A,,Clear,220,2013-06-24 22:00:00
1:30 AM,89.6,60.8,38,29.44,-9999.0,SW,4.6,-,N/A,,Clear,230,2013-06-24 22:30:00
2:00 AM,89.6,59.0,36,29.44,-9999.0,SW,4.6,-,N/A,,Clear,230,2013-06-24 23:00:00
3:00 AM,90,55,21,29.44,9,WSW,5.8,,,,,250,2013-06-25 00:00:00
3:00 AM,91.4,59.0,34,29.44,-9999.0,WSW,5.8,-,N/A,,Clear,250,2013-06-25 00:00:00
5:00 AM,89.6,59.0,36,29.44,-9999.0,West,4.6,-,N/A,,Clear,260,2013-06-25 02:00:00
6:00 AM,91.4,62.6,38,29.44,-9999.0,WSW,4.6,-,N/A,,Clear,250,2013-06-25 03:00:00
6:30 AM,91.4,64.4,41,29.47,-9999.0,West,5.8,-,N/A,,Clear,260,2013-06-25 03:30:00
7:00 AM,93.2,64.4,38,29.47,-9999.0,Variable,4.6,-,N/A,,Clear,0,2013-06-25 04:00:00
7:30 AM,96.8,64.4,34,29.47,-9999.0,West,4.6,-,N/A,,Clear,260,2013-06-25 04:30:00
8:00 AM,100.4,59.0,25,29.47,-9999.0,WNW,6.9,-,N/A,,Clear,300,2013-06-25 05:00:00
8:30 AM,104.0,59.0,23,29.47,-9999.0,NNW,17.3,-,N/A,,Clear,340,2013-06-25 05:30:00
9:00 AM,106,55,11,29.48,9,North,17.3,,,,,350,2013-06-25 06:00:00
9:00 AM,105.8,55.4,19,29.47,-9999.0,North,17.3,-,N/A,,Clear,350,2013-06-25 06:00:00
9:30 AM,107.6,55.4,18,29.47,-9999.0,North,16.1,-,N/A,,Clear,350,2013-06-25 06:30:00
10:00 AM,109.4,57.2,18,29.47,-9999.0,North,12.7,-,N/A,,Clear,350,2013-06-25 07:00:00
10:30 AM,111.2,51.8,14,29.44,-9999.0,North,12.7,-,N/A,,Clear,350,2013-06-25 07:30:00
11:00 AM,113.0,46.4,11,29.44,-9999.0,NW,12.7,25.3,N/A,,Clear,320,2013-06-25 08:00:00
11:30 AM,111.2,55.4,16,29.44,-9999.0,North,13.8,-,N/A,,Clear,360,2013-06-25 08:30:00
12:00 PM,113.0,50.0,13,29.44,-9999.0,North,12.7,-,N/A,,Clear,350,2013-06-25 09:00:00
12:30 PM,111.2,60.8,20,29.44,-9999.0,North,11.5,-,N/A,,Clear,350,2013-06-25 09:30:00
1:00 PM,111.2,60.8,20,29.44,-9999.0,NNW,18.4,-,N/A,,Clear,340,2013-06-25 10:00:00
1:30 PM,109.4,59.0,19,29.44,-9999.0,North,16.1,-,N/A,,Clear,10,2013-06-25 10:30:00
2:00 PM,111.2,60.8,20,29.44,-9999.0,North,13.8,-,N/A,,Clear,360,2013-06-25 11:00:00
2:30 PM,114.8,41.0,8,29.44,-9999.0,NNW,18.4,-,N/A,,Clear,330,2013-06-25 11:30:00
3:00 PM,113,39,4,29.44,10,NNW,19.6,,,,,340,2013-06-25 12:00:00
3:00 PM,113.0,39.2,8,29.44,-9999.0,NNW,19.6,-,N/A,,Clear,340,2013-06-25 12:00:00
4:00 PM,111.2,53.6,15,29.42,-9999.0,North,18.4,-,N/A,,Clear,360,2013-06-25 13:00:00
4:30 PM,107.6,62.6,23,29.44,-9999.0,North,17.3,-,N/A,,Clear,360,2013-06-25 13:30:00
5:00 PM,107.6,55.4,18,29.44,-9999.0,North,16.1,-,N/A,,Clear,360,2013-06-25 14:00:00
5:30 PM,105.8,53.6,18,29.44,-9999.0,North,12.7,-,N/A,,Clear,350,2013-06-25 14:30:00
6:00 PM,105.8,53.6,18,29.44,-9999.0,North,11.5,-,N/A,,Clear,350,2013-06-25 15:00:00
6:30 PM,102.2,57.2,22,29.44,-9999.0,North,10.4,-,N/A,,Clear,350,2013-06-25 15:30:00
7:00 PM,102.2,55.4,21,29.44,-9999.0,NNW,10.4,-,N/A,,Clear,340,2013-06-25 16:00:00
8:00 PM,100.4,53.6,21,29.44,-9999.0,NNW,10.4,-,N/A,,Clear,340,2013-06-25 17:00:00
9:00 PM,101,54,13,29.49,9,NNW,8.1,,,,,340,2013-06-25 18:00:00
9:00 PM,100.4,53.6,21,29.47,-9999.0,NNW,8.1,-,N/A,,Clear,340,2013-06-25 18:00:00
9:30 PM,100.4,50.0,18,29.47,-9999.0,NNW,9.2,-,N/A,,Clear,340,2013-06-25 18:30:00
10:00 PM,100.4,50.0,18,29.47,-9999.0,NNW,10.4,-,N/A,,Clear,340,2013-06-25 19:00:00
10:30 PM,98.6,51.8,21,29.47,-9999.0,NNW,5.8,-,N/A,,Clear,340,2013-06-25 19:30:00
11:00 PM,100.4,53.6,21,29.47,-9999.0,WNW,5.8,-,N/A,,Clear,300,2013-06-25 20:00:00
11:30 PM,100.4,53.6,21,29.47,-9999.0,WSW,6.9,-,N/A,,Clear,250,2013-06-25 20:30:00